ONEWEB-0115

Last updated on Sun Apr 25 2021 00:02:03 GMT+0000 (Coordinated Universal Time)

1 48042U 21025A 21114.58336806 -.01078679 00000-0 -42822-1 0 9995 2 48042 87.4237 339.3313 0007838 149.3081 186.4600 15.28246332 1808

Satellite not in orbit